Tracking 34305 objects as of 7-Jun-2026
HD Live streaming from Space Station
objects crossing your sky now

STARLINK-11716

Track STARLINK-11716 now!
10-day predictions
STARLINK-11716 is classified as:


NORAD ID: 64133
Int'l Code: 2025-111L
Perigee: 363.0 km
Apogee: 363.9 km
Inclination: 43.0 °
Period: 91.7 minutes
Semi major axis: 6734 km
RCS: Unknown
Launch date: May 24, 2025
Source: United States (US)
Launch site: AIR FORCE EASTERN TEST RANGE (AFETR)
Your satellite tracking list
Your tracking list is empty




NASA's NSSDC Master Catalog

Two Line Element Set (TLE):
1 64133U 25111L   26158.26113685  .00162505  00000-0  12418-2 0  9998
2 64133  42.9971 154.1861 0000707 215.5907 144.4914 15.70907286 60772
Source of the keplerian elements: AFSPC